[[{"header":{"parameterUnit":"m.s-1","parameterCategory":1,"la1":30.2991,"la2":30.254,"lo1":-89.0895,"lo2":-89.0444,"dy":0.0017,"dx":0.0017,"nx":28,"ny":28,"refTime":"2025-07-19T21:00:00:Z","depth":0,"parameterNumber":2,"parameterNumberName":"U-component_of_WINDS"},"data":[0,0,0,0,0,0,0,0,0,0,0,0,0,0,0,0,0,0,0,0,0,0,0,0,0,0,0,0,0,0,0,0,0,0,0,0,0,0,0,0,0,0,0,0,0,0,0,0,0,0,0,0,0,0,0,0,0,0,3.2411,3.2412,0,3.2531,3.2533,3.2534,3.2502,3.2499,3.2497,3.2494,3.2615,3.262,3.2625,0,0,0,0,0,0,0,0,0,0,0,0,0,3.2148,3.2153,3.2411,3.2412,3.2414,3.2531,3.2533,3.2534,3.2502,3.2499,3.2496,3.2493,3.2613,3.2619,3.2626,0,0,0,0,0,0,0,0,0,0,0,0,0,3.2265,3.2155,3.2411,3.2412,3.2413,3.2531,3.2533,3.2535,3.2503,3.2499,3.2495,3.2492,3.2611,3.2619,3.2627,3.2749,0,0,3.2651,3.2655,0,0,0,0,0,0,0,0,3.2258,3.2275,3.241,3.2412,3.2414,3.2498,3.2484,3.2606,3.2503,3.2469,3.2494,3.249,3.2578,3.2589,3.2619,3.2755,3.276,3.2652,3.2657,3.2661,3.2663,0,0,0,0,0,0,0,3.225,3.2269,3.2458,3.2412,3.2414,3.2405,3.2417,3.2507,3.2542,3.2471,3.2469,3.2484,3.2579,3.2612,3.2622,3.2762,3.2652,3.2659,3.2664,3.2667,3.2999,3.3003,0,0,0,0,0,0,3.2241,3.2263,3.2455,3.2462,3.2326,3.2413,3.2427,3.2474,3.2541,3.2548,3.2487,3.2482,3.2599,3.2612,3.2626,3.2771,3.2661,3.2668,3.2673,3.2995,3.3,3.3004,0,0,0,0,0,0,3.2236,3.2259,3.245,3.2362,3.2385,3.2421,3.2475,3.2479,3.2512,3.2553,3.2559,3.2515,3.2597,3.2615,3.2718,3.2774,3.2672,3.2679,3.2991,3.2997,3.3002,3.3063,0,0,0,0,0,0,3.2229,3.2257,3.2305,3.2363,3.239,3.2541,3.2478,3.2484,3.2526,3.2521,3.258,3.2587,3.2596,3.2706,3.2726,3.2784,3.2686,3.2986,3.2993,3.3,3.3056,3.307,3.3082,0,0,0,0,0,3.2219,3.2318,3.2308,3.2331,3.2451,3.2545,3.256,3.2569,3.2531,3.2578,3.2604,3.2585,3.2766,3.2717,3.2739,3.28,3.2982,3.2991,3.3,3.305,3.3067,3.3082,0,0,0,0,0,0,3.2265,3.2326,3.2315,3.2436,3.2485,3.2539,3.26,3.2588,3.2649,3.2641,3.2649,3.2662,3.2767,3.2795,3.2739,3.292,3.2868,3.2882,3.2899,3.2915,3.2928,3.2918,3.2692,0,0,0,0,0,3.229,3.2362,3.241,3.2512,3.2537,3.2564,3.2605,3.2608,3.2659,3.268,3.2713,3.2763,3.283,3.2875,3.294,3.306,3.3071,3.3113,3.3126,3.3137,3.3148,3.321,3.3228,3.3033,3.3033,3.3033,0,0,3.234,3.2382,3.2427,3.2522,3.2561,3.2633,3.2582,3.2662,3.2714,3.2691,3.279,3.2817,3.2872,3.2984,3.3035,3.301,3.3204,3.3148,3.3156,3.3162,3.3221,3.3239,3.3256,3.3039,3.3038,3.3037,0,0,3.2469,3.2509,3.2597,3.2636,3.2695,3.2713,3.2733,3.2789,3.2806,3.2906,3.2889,3.2951,3.3069,3.3107,3.3143,3.3284,3.3267,3.3305,3.3373,3.3433,3.3448,3.3462,3.3509,3.3526,3.3316,3.3316,3.3316,0,3.2524,3.2634,3.2643,3.2723,3.2764,3.2747,3.2833,3.2871,3.2949,3.2976,3.2947,3.3092,3.3128,3.3247,3.3281,3.3312,3.3333,3.3297,3.3446,3.346,3.3472,3.3517,3.3535,3.332,3.332,3.3319,3.3319,0,3.2696,3.2773,3.2836,3.291,3.2959,3.3042,3.3062,3.3109,3.3107,3.3126,3.3226,3.327,3.3341,3.337,3.3369,3.3488,3.347,3.3444,3.3391,3.3495,3.3537,3.3554,3.3326,3.3325,3.3323,3.3322,0,0,3.2857,3.2935,3.2958,3.299,3.3053,3.3111,3.3193,3.3263,3.3302,3.3356,3.3422,3.352,3.3495,3.3535,3.3539,3.3592,3.3697,3.3559,3.356,3.358,3.3826,3.3843,3.3863,3.3687,3.369,3.3693,3.382,0,3.2989,3.3133,3.3142,3.3272,3.334,3.3324,3.3394,3.3439,3.346,3.3519,3.3541,3.3609,3.3573,3.3596,3.3649,3.3673,3.3746,3.3664,3.3745,3.3748,3.3729,3.3886,3.3905,3.4023,3.3837,3.384,3.3842,0,3.3162,3.322,3.3356,3.3407,3.3436,3.3499,3.3562,3.3621,3.3671,3.3681,3.3725,3.372,3.3801,3.3747,3.3856,3.38,3.3834,3.3851,3.3855,3.3861,3.38,3.3893,3.4062,3.4078,3.3869,3.3867,3.3865,0,3.3261,3.3373,3.3468,3.3497,3.356,3.3604,3.3632,3.3678,3.3719,3.3775,3.38,3.3865,3.3899,3.3948,3.3959,3.3919,3.4067,3.4015,3.4075,3.4075,3.4105,3.4103,3.4279,3.4132,3.4132,3.4132,3.4131,0,3.3405,3.3488,3.3513,3.3572,3.3663,3.3673,3.3763,3.3787,3.3829,3.3889,3.388,3.3937,3.395,3.4009,3.4019,3.4106,3.4123,3.4131,3.4132,3.413,3.4129,3.4151,3.4141,3.4137,3.4136,3.4135,3.4134,0,3.353,3.3551,3.3653,3.3704,3.3719,3.3783,3.3826,3.388,3.3899,3.3976,3.3994,3.4023,3.4092,3.4108,3.4191,3.4197,3.4299,3.4293,3.4282,3.428,3.4339,3.4332,3.4533,3.4558,3.4398,3.4399,3.4401,0,3.362,3.3683,3.374,3.3781,3.381,3.3876,3.3917,3.3929,3.3972,3.4032,3.4078,3.4146,3.4201,3.4311,3.4337,3.4399,3.4393,3.446,3.4402,3.4397,3.439,3.4385,3.439,3.4469,3.4471,3.4473,3.4474,0,3.3775,3.3781,3.3842,3.3905,3.3955,3.4005,3.4053,3.4087,3.4104,3.4153,3.4223,3.4265,3.4348,3.4414,3.4476,3.4503,3.449,3.4492,3.4508,3.4506,3.4495,3.4498,3.4308,3.4487,3.4485,3.4484,3.4484,3.4483,3.3883,3.3937,3.3985,3.4051,3.4089,3.4133,3.4186,3.4211,3.427,3.4339,3.4342,3.4417,3.4463,3.4544,3.4575,3.4632,3.4612,3.4637,3.4643,3.4648,3.4651,3.4488,3.4644,3.4644,3.4643,3.4643,3.4643,0,3.4034,3.4064,3.4125,3.4192,3.4244,3.423,3.4281,3.4325,3.4392,3.4436,3.4489,3.4568,3.4632,3.4663,3.4725,3.4765,3.4761,3.4781,3.4776,3.4782,3.4668,3.4645,3.4783,3.4783,3.4783,3.4783,3.4783,3.4783,3.4119,3.4208,3.422,3.4328,3.4356,3.4431,3.4461,3.4501,3.4536,3.4625,3.4677,3.4698,3.4736,3.4801,3.4857,3.4864,3.4886,3.4909,3.4913,3.4805,3.479,3.4777,3.4756,3.4914,3.4914,3.5022,3.5023,3.5023]},{"header":{"parameterUnit":"m.s-1","parameterCategory":1,"la1":30.2991,"la2":30.254,"lo1":-89.0895,"lo2":-89.0444,"dy":0.0017,"dx":0.0017,"nx":28,"ny":28,"refTime":"2025-07-19T21:00:00:Z","depth":0,"parameterNumber":3,"parameterNumberName":"V-component_of_WINDS"},"data":[0,0,0,0,0,0,0,0,0,0,0,0,0,0,0,0,0,0,0,0,0,0,0,0,0,0,0,0,0,0,0,0,0,0,0,0,0,0,0,0,0,0,0,0,0,0,0,0,0,0,0,0,0,0,0,0,0,0,2.6708,2.6708,0,2.6763,2.6764,2.6764,2.6728,2.6726,2.6725,2.6723,2.6781,2.6784,2.6787,0,0,0,0,0,0,0,0,0,0,0,0,0,2.657,2.6572,2.6708,2.6708,2.6709,2.6763,2.6764,2.6765,2.6728,2.6726,2.6724,2.6722,2.678,2.6783,2.6787,0,0,0,0,0,0,0,0,0,0,0,0,0,2.6628,2.6573,2.6708,2.6697,2.6697,2.6763,2.6764,2.6765,2.6729,2.6726,2.6724,2.6721,2.6779,2.6783,2.6788,2.6867,0,0,2.6802,2.6804,0,0,0,0,0,0,0,0,2.6624,2.6633,2.6698,2.6698,2.6698,2.6736,2.6736,2.6799,2.6729,2.6717,2.6723,2.672,2.6768,2.6773,2.6789,2.687,2.6872,2.6802,2.6805,2.6807,2.6808,0,0,0,0,0,0,0,2.6621,2.663,2.673,2.6699,2.6699,2.669,2.6695,2.6748,2.6756,2.6718,2.6715,2.6722,2.6767,2.6785,2.679,2.6873,2.6802,2.6806,2.6809,2.6811,2.7017,2.702,0,0,0,0,0,0,2.6617,2.6627,2.6728,2.6731,2.6654,2.6694,2.67,2.6726,2.6755,2.6757,2.6724,2.672,2.6778,2.6785,2.6792,2.6885,2.6807,2.6811,2.6814,2.7015,2.7018,2.7021,0,0,0,0,0,0,2.6615,2.6627,2.6726,2.6679,2.669,2.6699,2.6729,2.6729,2.6746,2.676,2.6761,2.6741,2.6776,2.6786,2.6848,2.6886,2.6814,2.6818,2.7011,2.7016,2.7019,2.7072,0,0,0,0,0,0,2.6611,2.6626,2.6657,2.668,2.6693,2.6781,2.6731,2.6732,2.6754,2.6749,2.6776,2.6778,2.6775,2.6841,2.6852,2.6891,2.6821,2.7008,2.7013,2.7018,2.7067,2.7077,2.7086,0,0,0,0,0,2.6606,2.667,2.6658,2.6671,2.6732,2.6783,2.6791,2.6786,2.6758,2.6788,2.6796,2.6777,2.688,2.6848,2.686,2.6901,2.7006,2.7012,2.7018,2.7062,2.7075,2.7086,0,0,0,0,0,0,2.6653,2.6673,2.666,2.6734,2.6757,2.6777,2.6816,2.68,2.6833,2.6827,2.682,2.6826,2.689,2.6902,2.6865,2.6978,2.6938,2.6947,2.6968,2.698,2.699,2.6985,2.6825,0,0,0,0,0,2.6672,2.6712,2.6727,2.6791,2.6803,2.6807,2.683,2.6823,2.6847,2.6857,2.687,2.6894,2.6931,2.6956,2.6992,2.7068,2.7072,2.7102,2.7112,2.712,2.7127,2.7166,2.7179,2.7041,2.7041,2.704,0,0,2.6712,2.6727,2.6754,2.6801,2.6818,2.6859,2.6816,2.6862,2.6892,2.6864,2.6923,2.6933,2.6959,2.7028,2.7059,2.7039,2.7166,2.7127,2.7133,2.7137,2.7173,2.7186,2.7198,2.7045,2.7044,2.7043,0,0,2.6805,2.6821,2.6875,2.6892,2.6918,2.6919,2.6932,2.6954,2.6959,2.7018,2.6997,2.7032,2.7098,2.7116,2.7134,2.723,2.7213,2.7242,2.7293,2.733,2.7341,2.7351,2.7383,2.7395,2.7249,2.725,2.725,0,2.6851,2.6912,2.6904,2.6951,2.6971,2.6946,2.6999,2.7017,2.7053,2.7068,2.7045,2.7124,2.714,2.7212,2.7235,2.7251,2.7264,2.7239,2.734,2.735,2.7358,2.7389,2.7402,2.7253,2.7252,2.7252,2.7252,0,2.6966,2.7009,2.7049,2.7083,2.7107,2.7157,2.7156,2.7182,2.7173,2.7177,2.7236,2.7253,2.7291,2.7307,2.73,2.7377,2.7363,2.7341,2.7301,2.7375,2.7404,2.7416,2.7258,2.7256,2.7255,2.7255,0,0,2.7093,2.7119,2.7134,2.7148,2.7173,2.7205,2.7253,2.7288,2.731,2.7335,2.7374,2.7428,2.7406,2.7426,2.742,2.7453,2.7526,2.7426,2.7427,2.7443,2.7609,2.7625,2.764,2.7514,2.7516,2.7518,2.7606,0,2.7186,2.7269,2.7261,2.7339,2.7377,2.7352,2.7394,2.7413,2.7417,2.7449,2.7454,2.7492,2.7461,2.7472,2.7504,2.751,2.7559,2.7504,2.7549,2.7551,2.7543,2.7655,2.7673,2.7756,2.7618,2.762,2.7621,0,2.7307,2.7334,2.7415,2.7431,2.7447,2.7484,2.7514,2.7546,2.7566,2.7567,2.7588,2.7575,2.7622,2.758,2.7643,2.7606,2.7624,2.763,2.7633,2.7637,2.7591,2.7661,2.7782,2.7794,2.7639,2.7638,2.7637,0,2.7388,2.7446,2.7501,2.7514,2.7535,2.7561,2.7571,2.7589,2.7609,2.7636,2.7649,2.7681,2.7698,2.7722,2.7718,2.7689,2.7782,2.7741,2.7782,2.7783,2.7804,2.7802,2.7929,2.7816,2.7816,2.7816,2.7816,0,2.7493,2.7544,2.7538,2.7572,2.7627,2.7617,2.7672,2.7678,2.7694,2.7728,2.7709,2.7741,2.7734,2.7766,2.7763,2.7814,2.7823,2.7823,2.7822,2.7825,2.7825,2.7836,2.783,2.7819,2.7818,2.7818,2.7817,0,2.7595,2.7593,2.7651,2.7665,2.7669,2.7709,2.7721,2.7752,2.7754,2.7797,2.7806,2.7809,2.7845,2.7843,2.7884,2.7882,2.7945,2.7937,2.7938,2.7936,2.7977,2.7973,2.8115,2.8133,2.801,2.8011,2.8012,0,2.7661,2.7699,2.7716,2.7737,2.7748,2.7783,2.7803,2.7794,2.7816,2.784,2.7868,2.7902,2.7929,2.7988,2.7993,2.8024,2.8016,2.8063,2.802,2.8021,2.8015,2.8012,2.8015,2.8072,2.8073,2.8074,2.8075,0,2.7779,2.7775,2.7805,2.7834,2.7858,2.7881,2.7901,2.7919,2.7912,2.7938,2.7974,2.7994,2.8035,2.8068,2.8097,2.8106,2.809,2.8089,2.81,2.8103,2.8101,2.8101,2.796,2.8086,2.8085,2.8084,2.8083,2.8083,2.7864,2.7896,2.7912,2.7945,2.7958,2.7977,2.8006,2.801,2.804,2.8072,2.8065,2.8105,2.8121,2.8158,2.817,2.82,2.8183,2.82,2.8204,2.8208,2.8212,2.8096,2.8206,2.8206,2.8205,2.8205,2.8205,0,2.798,2.7988,2.8019,2.8047,2.8072,2.8052,2.8073,2.8095,2.8131,2.8147,2.8173,2.8213,2.8245,2.8251,2.8281,2.8304,2.8297,2.8312,2.831,2.8312,2.8226,2.8213,2.8317,2.8317,2.8317,2.8317,2.8317,2.8317,2.8043,2.8094,2.8092,2.8149,2.8157,2.8195,2.8208,2.8225,2.8238,2.8283,2.8309,2.8312,2.8324,2.8354,2.8382,2.8382,2.8394,2.8412,2.841,2.833,2.8319,2.8308,2.8295,2.8415,2.8415,2.8493,2.8494,2.8494]}]]